Data No.,UTC Date,UTC Time,Latitude,Longitude,Course(deg),Temp(degC)
2377,2008/9/13,0:47:00,25-01.2400N,138-57.8200E,172,29.485
2378,2008/9/13,0:48:00,25-01.0200N,138-57.8500E,172,29.491
2379,2008/9/13,0:49:00,25-00.8000N,138-57.8900E,171,29.49
2380,2008/9/13,0:50:00,25-00.5900N,138-57.9300E,171,29.494
2381,2008/9/13,0:51:00,25-00.3700N,138-57.9600E,172,29.495
2382,2008/9/13,0:52:00,25-00.1600N,138-57.9900E,172,29.493
2383,2008/9/13,0:53:00,24-59.9400N,138-58.0200E,172,29.494
2384,2008/9/13,0:54:00,24-59.7200N,138-58.0600E,171,29.486
2385,2008/9/13,0:55:00,24-59.5100N,138-58.0900E,171,29.476
2386,2008/9/13,0:56:00,24-59.2700N,138-58.1200E,172,29.483
2387,2008/9/13,0:57:00,24-59.0600N,138-58.1600E,171,29.489
2388,2008/9/13,0:58:00,24-58.8400N,138-58.1900E,172,29.485
2389,2008/9/13,0:59:00,24-58.6300N,138-58.2200E,173,29.496
2390,2008/9/13,1:00:00,24-58.4100N,138-58.2500E,172,29.5
2391,2008/9/13,1:01:00,24-58.1900N,138-58.2900E,173,29.513
2392,2008/9/13,1:02:00,24-57.9800N,138-58.3200E,173,29.497
2393,2008/9/13,1:03:00,24-57.7600N,138-58.3500E,172,29.504
2394,2008/9/13,1:04:00,24-57.5400N,138-58.3800E,172,29.519
2395,2008/9/13,1:05:00,24-57.3300N,138-58.4200E,171,29.531
2396,2008/9/13,1:06:00,24-57.1200N,138-58.4500E,172,29.522
2397,2008/9/13,1:07:00,24-56.9000N,138-58.4800E,172,29.539
2398,2008/9/13,1:08:00,24-56.6800N,138-58.5100E,172,29.549
2399,2008/9/13,1:09:00,24-56.4700N,138-58.5400E,171,29.543
2400,2008/9/13,1:10:00,24-56.2500N,138-58.5700E,173,29.54
2401,2008/9/13,1:11:00,24-56.0300N,138-58.6000E,173,29.548
2402,2008/9/13,1:12:00,24-55.8200N,138-58.6300E,172,29.546
2403,2008/9/13,1:13:00,24-55.6000N,138-58.6600E,173,29.543
2404,2008/9/13,1:14:00,24-55.3900N,138-58.6900E,173,29.545
2405,2008/9/13,1:15:00,24-55.1700N,138-58.7200E,174,29.552
2406,2008/9/13,1:16:00,24-54.9500N,138-58.7500E,171,29.543
2407,2008/9/13,1:17:00,24-54.7200N,138-58.7800E,173,29.538
2408,2008/9/13,1:18:00,24-54.5100N,138-58.8100E,175,29.544
2409,2008/9/13,1:19:00,24-54.2900N,138-58.8400E,172,29.548
2410,2008/9/13,1:20:00,24-54.0800N,138-58.8700E,170,29.56
2411,2008/9/13,1:21:00,24-53.8700N,138-58.9100E,169,29.539
2412,2008/9/13,1:22:00,24-53.6500N,138-58.9500E,171,29.529
2413,2008/9/13,1:23:00,24-53.4400N,138-58.9900E,170,29.521
2414,2008/9/13,1:24:00,24-53.2300N,138-59.0300E,171,29.49
2415,2008/9/13,1:25:00,24-53.0100N,138-59.0700E,170,29.49
2416,2008/9/13,1:26:00,24-52.8000N,138-59.1100E,170,29.518
2417,2008/9/13,1:27:00,24-52.5800N,138-59.1500E,170,29.516
2418,2008/9/13,1:28:00,24-52.3700N,138-59.1800E,171,29.546
2419,2008/9/13,1:29:00,24-52.1500N,138-59.2200E,169,29.57
2420,2008/9/13,1:30:00,24-51.9300N,138-59.2600E,169,29.587
2421,2008/9/13,1:31:00,24-51.7200N,138-59.3000E,169,29.608
2422,2008/9/13,1:32:00,24-51.5000N,138-59.3500E,169,29.614
2423,2008/9/13,1:33:00,24-51.2900N,138-59.3900E,170,29.619
2424,2008/9/13,1:34:00,24-51.0700N,138-59.4300E,170,29.619
2425,2008/9/13,1:35:00,24-50.8600N,138-59.4600E,171,29.605
2426,2008/9/13,1:36:00,24-50.6500N,138-59.5000E,170,29.607
2427,2008/9/13,1:37:00,24-50.4300N,138-59.5400E,170,29.614
2428,2008/9/13,1:38:00,24-50.2000N,138-59.5800E,171,29.627
2429,2008/9/13,1:39:00,24-49.9800N,138-59.6200E,171,29.627
2430,2008/9/13,1:40:00,24-49.7700N,138-59.6600E,169,29.647
2431,2008/9/13,1:41:00,24-49.5500N,138-59.7000E,169,29.632
2432,2008/9/13,1:42:00,24-49.3300N,138-59.7400E,170,29.611
2433,2008/9/13,1:43:00,24-49.1100N,138-59.7700E,170,29.627
2434,2008/9/13,1:44:00,24-48.8900N,138-59.8200E,169,29.63
2435,2008/9/13,1:45:00,24-48.6800N,138-59.8600E,169,29.647
2436,2008/9/13,1:46:00,24-48.4600N,138-59.9000E,170,29.655
2437,2008/9/13,1:47:00,24-48.2400N,138-59.9400E,170,29.631
2438,2008/9/13,1:48:00,24-48.0200N,138-59.9800E,169,29.618
2439,2008/9/13,1:49:00,24-47.8000N,139-00.0200E,170,29.621
2440,2008/9/13,1:50:00,24-47.5800N,139-00.0600E,170,29.628
2441,2008/9/13,1:51:00,24-47.3600N,139-00.1000E,169,29.588
2442,2008/9/13,1:52:00,24-47.1400N,139-00.1400E,169,29.613
2443,2008/9/13,1:53:00,24-46.9300N,139-00.1800E,170,29.624
2444,2008/9/13,1:54:00,24-46.7000N,139-00.2300E,170,29.616
2445,2008/9/13,1:55:00,24-46.4900N,139-00.2600E,170,29.645
2446,2008/9/13,1:56:00,24-46.2700N,139-00.3000E,170,29.648
2447,2008/9/13,1:57:00,24-46.0600N,139-00.3500E,169,29.665
2448,2008/9/13,1:58:00,24-45.8400N,139-00.3900E,171,29.653
2449,2008/9/13,1:59:00,24-45.6200N,139-00.4300E,169,29.673
2450,2008/9/13,2:00:00,24-45.3900N,139-00.4700E,170,29.663
2451,2008/9/13,2:01:00,24-45.1700N,139-00.5100E,171,29.681
2452,2008/9/13,2:02:00,24-44.9500N,139-00.5500E,171,29.688
2453,2008/9/13,2:03:00,24-44.7400N,139-00.5900E,169,29.679
2454,2008/9/13,2:04:00,24-44.5300N,139-00.6300E,169,29.666
2455,2008/9/13,2:05:00,24-44.3100N,139-00.6800E,170,29.671
2456,2008/9/13,2:06:00,24-44.0900N,139-00.7200E,169,29.676
2457,2008/9/13,2:07:00,24-43.8800N,139-00.7600E,168,29.657
2458,2008/9/13,2:08:00,24-43.6600N,139-00.8000E,170,29.632
2459,2008/9/13,2:09:00,24-43.4500N,139-00.8400E,170,29.622
2460,2008/9/13,2:10:00,24-43.2300N,139-00.8800E,168,29.611
2461,2008/9/13,2:11:00,24-43.0100N,139-00.9200E,168,29.6
2462,2008/9/13,2:12:00,24-42.8000N,139-00.9600E,168,29.599
2463,2008/9/13,2:13:00,24-42.5900N,139-01.0000E,169,29.615
2464,2008/9/13,2:14:00,24-42.3700N,139-01.0400E,171,29.625
2465,2008/9/13,2:15:00,24-42.1600N,139-01.0700E,172,29.643
2466,2008/9/13,2:16:00,24-41.9400N,139-01.1100E,170,29.669
2467,2008/9/13,2:17:00,24-41.7300N,139-01.1600E,169,29.699
2468,2008/9/13,2:18:00,24-41.5200N,139-01.2000E,169,29.727
2469,2008/9/13,2:19:00,24-41.3000N,139-01.2400E,169,29.742
2470,2008/9/13,2:20:00,24-41.0900N,139-01.2800E,169,29.741
2471,2008/9/13,2:21:00,24-40.8600N,139-01.3300E,170,29.734
2472,2008/9/13,2:22:00,24-40.6500N,139-01.3700E,170,29.72
2473,2008/9/13,2:23:00,24-40.4400N,139-01.4100E,169,29.715
2474,2008/9/13,2:24:00,24-40.2200N,139-01.4600E,169,29.688
2475,2008/9/13,2:25:00,24-40.0000N,139-01.5000E,170,29.647
2476,2008/9/13,2:26:00,24-39.7900N,139-01.5400E,167,29.593
2477,2008/9/13,2:27:00,24-39.5700N,139-01.5800E,170,29.563
2478,2008/9/13,2:28:00,24-39.3500N,139-01.6300E,168,29.551
2479,2008/9/13,2:29:00,24-39.1400N,139-01.6800E,169,29.559
2480,2008/9/13,2:30:00,24-38.9200N,139-01.7100E,172,29.583
2481,2008/9/13,2:31:00,24-38.7000N,139-01.7500E,171,29.593
2482,2008/9/13,2:32:00,24-38.4800N,139-01.7900E,172,29.589
2483,2008/9/13,2:33:00,24-38.2600N,139-01.8200E,171,29.585
2484,2008/9/13,2:34:00,24-38.0400N,139-01.8500E,172,29.587
2485,2008/9/13,2:35:00,24-37.8200N,139-01.8900E,170,29.578
2486,2008/9/13,2:36:00,24-37.6000N,139-01.9300E,170,29.59
2487,2008/9/13,2:37:00,24-37.3800N,139-01.9600E,171,29.592
2488,2008/9/13,2:38:00,24-37.1600N,139-02.0000E,171,29.582
2489,2008/9/13,2:39:00,24-36.9400N,139-02.0300E,172,29.576
2490,2008/9/13,2:40:00,24-36.7200N,139-02.0700E,171,29.588
2491,2008/9/13,2:41:00,24-36.5000N,139-02.1000E,171,29.573
2492,2008/9/13,2:42:00,24-36.2800N,139-02.1400E,171,29.587
2493,2008/9/13,2:43:00,24-36.0400N,139-02.1700E,171,29.601
2494,2008/9/13,2:44:00,24-35.8200N,139-02.2100E,171,29.594
2495,2008/9/13,2:45:00,24-35.6000N,139-02.2400E,172,29.583
2496,2008/9/13,2:46:00,24-35.3800N,139-02.2800E,171,29.596
2497,2008/9/13,2:47:00,24-35.1600N,139-02.3100E,171,29.59
2498,2008/9/13,2:48:00,24-34.9500N,139-02.3500E,171,29.558
2499,2008/9/13,2:49:00,24-34.7300N,139-02.3800E,172,29.548
2500,2008/9/13,2:50:00,24-34.5100N,139-02.4100E,169,29.534
2501,2008/9/13,2:51:00,24-34.2900N,139-02.4500E,170,29.525
2502,2008/9/13,2:52:00,24-34.0800N,139-02.4900E,169,29.504
2503,2008/9/13,2:53:00,24-33.8500N,139-02.5200E,172,29.495
2504,2008/9/13,2:54:00,24-33.6400N,139-02.5500E,172,29.502
2505,2008/9/13,2:55:00,24-33.4200N,139-02.5900E,170,29.511
2506,2008/9/13,2:56:00,24-33.2000N,139-02.6300E,169,29.512
2507,2008/9/13,2:57:00,24-32.9800N,139-02.6700E,171,29.499
2508,2008/9/13,2:58:00,24-32.7700N,139-02.7100E,171,29.487
2509,2008/9/13,2:59:00,24-32.5500N,139-02.7400E,171,29.508
2510,2008/9/13,3:00:00,24-32.3300N,139-02.7800E,170,29.509
2511,2008/9/13,3:01:00,24-32.1100N,139-02.8200E,171,29.492
2512,2008/9/13,3:02:00,24-31.8900N,139-02.8600E,169,29.499
2513,2008/9/13,3:03:00,24-31.6700N,139-02.9000E,170,29.489
2514,2008/9/13,3:04:00,24-31.4400N,139-02.9500E,170,29.486
2515,2008/9/13,3:05:00,24-31.2200N,139-02.9900E,169,29.456
2516,2008/9/13,3:06:00,24-31.0000N,139-03.0300E,170,29.433
2517,2008/9/13,3:07:00,24-30.7800N,139-03.0700E,170,29.423
2518,2008/9/13,3:08:00,24-30.5600N,139-03.1100E,170,29.433
2519,2008/9/13,3:09:00,24-30.3400N,139-03.1500E,169,29.471
2520,2008/9/13,3:10:00,24-30.1200N,139-03.1900E,169,29.47
2521,2008/9/13,3:11:00,24-29.9000N,139-03.2300E,169,29.469
2522,2008/9/13,3:12:00,24-29.6700N,139-03.2800E,170,29.472
2523,2008/9/13,3:13:00,24-29.4500N,139-03.3200E,170,29.5
2524,2008/9/13,3:14:00,24-29.2300N,139-03.3600E,171,29.531
2525,2008/9/13,3:15:00,24-29.0100N,139-03.4000E,168,29.547
2526,2008/9/13,3:16:00,24-28.7800N,139-03.4500E,169,29.551
2527,2008/9/13,3:17:00,24-28.5600N,139-03.4900E,170,29.547
2528,2008/9/13,3:18:00,24-28.3400N,139-03.5300E,169,29.554
2529,2008/9/13,3:19:00,24-28.1100N,139-03.5700E,169,29.565
2530,2008/9/13,3:20:00,24-27.8900N,139-03.6200E,169,29.557
2531,2008/9/13,3:21:00,24-27.6700N,139-03.6600E,169,29.591
2532,2008/9/13,3:22:00,24-27.4500N,139-03.7000E,169,29.596
2533,2008/9/13,3:23:00,24-27.2300N,139-03.7400E,170,29.625
2534,2008/9/13,3:24:00,24-27.0000N,139-03.7800E,169,29.611
2535,2008/9/13,3:25:00,24-26.7700N,139-03.8300E,169,29.623
2536,2008/9/13,3:26:00,24-26.5300N,139-03.8700E,168,29.626
2537,2008/9/13,3:27:00,24-26.3100N,139-03.9200E,170,29.626
2538,2008/9/13,3:28:00,24-26.0800N,139-03.9600E,169,29.641
2539,2008/9/13,3:29:00,24-25.8500N,139-04.0000E,170,29.648
2540,2008/9/13,3:30:00,24-25.6300N,139-04.0400E,171,29.606
2541,2008/9/13,3:31:00,24-25.3900N,139-04.0800E,170,29.592
2542,2008/9/13,3:32:00,24-25.1600N,139-04.1300E,169,29.588
2543,2008/9/13,3:33:00,24-24.9400N,139-04.1700E,170,29.577
2544,2008/9/13,3:34:00,24-24.7100N,139-04.2200E,170,29.569
2545,2008/9/13,3:35:00,24-24.4800N,139-04.2600E,170,29.587
2546,2008/9/13,3:36:00,24-24.2500N,139-04.3100E,169,29.597
2547,2008/9/13,3:37:00,24-24.0300N,139-04.3500E,169,29.609
2548,2008/9/13,3:38:00,24-23.7900N,139-04.4000E,169,29.61
2549,2008/9/13,3:39:00,24-23.5600N,139-04.4400E,168,29.618
2550,2008/9/13,3:40:00,24-23.3300N,139-04.4900E,170,29.642
2551,2008/9/13,3:41:00,24-23.1000N,139-04.5400E,169,29.591
2552,2008/9/13,3:42:00,24-22.8700N,139-04.5900E,169,29.563
2553,2008/9/13,3:43:00,24-22.6400N,139-04.6300E,167,29.553
2554,2008/9/13,3:44:00,24-22.4200N,139-04.6800E,168,29.563
2555,2008/9/13,3:45:00,24-22.1900N,139-04.7200E,169,29.539
2556,2008/9/13,3:46:00,24-21.9600N,139-04.7700E,169,29.556
2557,2008/9/13,3:47:00,24-21.7200N,139-04.8200E,169,29.554
2558,2008/9/13,3:48:00,24-21.4900N,139-04.8600E,169,29.529
2559,2008/9/13,3:49:00,24-21.2500N,139-04.9000E,169,29.524
2560,2008/9/13,3:50:00,24-21.0200N,139-04.9400E,170,29.534
2561,2008/9/13,3:51:00,24-20.7800N,139-04.9900E,169,29.538
2562,2008/9/13,3:52:00,24-20.5500N,139-05.0300E,170,29.523
2563,2008/9/13,3:53:00,24-20.3200N,139-05.0700E,170,29.53
2564,2008/9/13,3:54:00,24-20.0800N,139-05.1200E,171,29.55
2565,2008/9/13,3:55:00,24-19.8500N,139-05.1600E,171,29.533
2566,2008/9/13,3:56:00,24-19.6100N,139-05.2000E,171,29.532
2567,2008/9/13,3:57:00,24-19.3800N,139-05.2400E,170,29.522
2568,2008/9/13,3:58:00,24-19.1500N,139-05.2800E,170,29.512
2569,2008/9/13,3:59:00,24-18.9200N,139-05.3300E,170,29.521
2570,2008/9/13,4:00:00,24-18.6800N,139-05.3700E,169,29.559
2571,2008/9/13,4:01:00,24-18.4500N,139-05.4200E,171,29.578
2572,2008/9/13,4:02:00,24-18.2100N,139-05.4500E,171,29.594
2573,2008/9/13,4:03:00,24-17.9800N,139-05.4900E,170,29.589
2574,2008/9/13,4:04:00,24-17.7500N,139-05.5300E,170,29.608
2575,2008/9/13,4:05:00,24-17.5100N,139-05.5800E,171,29.595
2576,2008/9/13,4:06:00,24-17.2700N,139-05.6200E,171,29.584
2577,2008/9/13,4:07:00,24-17.0400N,139-05.6600E,171,29.576
2578,2008/9/13,4:08:00,24-16.8000N,139-05.7000E,170,29.564
2579,2008/9/13,4:09:00,24-16.5500N,139-05.7500E,170,29.555
2580,2008/9/13,4:10:00,24-16.3000N,139-05.7900E,171,29.565
2581,2008/9/13,4:11:00,24-16.0700N,139-05.8300E,170,29.597
2582,2008/9/13,4:12:00,24-15.8300N,139-05.8700E,171,29.599
2583,2008/9/13,4:13:00,24-15.6000N,139-05.9100E,172,29.602
2584,2008/9/13,4:14:00,24-15.3600N,139-05.9500E,169,29.611
2585,2008/9/13,4:15:00,24-15.1200N,139-05.9900E,169,29.632
2586,2008/9/13,4:16:00,24-14.8900N,139-06.0300E,171,29.637
2587,2008/9/13,4:17:00,24-14.6600N,139-06.0700E,171,29.646
2588,2008/9/13,4:18:00,24-14.4200N,139-06.1000E,170,29.624
2589,2008/9/13,4:19:00,24-14.1900N,139-06.1400E,171,29.612
2590,2008/9/13,4:20:00,24-13.9500N,139-06.1800E,172,29.603
2591,2008/9/13,4:21:00,24-13.7200N,139-06.2100E,172,29.591
2592,2008/9/13,4:22:00,24-13.4800N,139-06.2500E,171,29.515
2593,2008/9/13,4:23:00,24-13.2500N,139-06.2900E,169,29.466
2594,2008/9/13,4:24:00,24-13.0200N,139-06.3300E,170,29.491
2595,2008/9/13,4:25:00,24-12.7900N,139-06.3700E,171,29.509
2596,2008/9/13,4:26:00,24-12.5500N,139-06.4100E,170,29.303
2597,2008/9/13,4:27:00,24-12.3200N,139-06.4500E,170,29.253
2598,2008/9/13,4:28:00,24-12.0900N,139-06.5000E,167,29.295
2599,2008/9/13,4:29:00,24-11.8500N,139-06.5400E,170,29.367
2600,2008/9/13,4:30:00,24-11.6000N,139-06.5800E,171,29.405
2601,2008/9/13,4:31:00,24-11.3700N,139-06.6200E,171,29.426
2602,2008/9/13,4:32:00,24-11.1400N,139-06.6600E,170,29.419
2603,2008/9/13,4:33:00,24-10.9000N,139-06.7100E,170,29.413
2604,2008/9/13,4:34:00,24-10.6700N,139-06.7500E,171,29.439
2605,2008/9/13,4:35:00,24-10.4400N,139-06.7800E,172,29.487
2606,2008/9/13,4:36:00,24-10.2000N,139-06.8300E,171,29.477
2607,2008/9/13,4:37:00,24-09.9600N,139-06.8700E,170,29.492
2608,2008/9/13,4:38:00,24-09.7300N,139-06.9000E,170,29.503
2609,2008/9/13,4:39:00,24-09.4900N,139-06.9500E,171,29.468
2610,2008/9/13,4:40:00,24-09.2600N,139-06.9900E,170,29.458
2611,2008/9/13,4:41:00,24-09.0200N,139-07.0300E,171,29.458
2612,2008/9/13,4:42:00,24-08.7900N,139-07.0700E,172,29.455
2613,2008/9/13,4:43:00,24-08.5500N,139-07.1100E,172,29.446
2614,2008/9/13,4:44:00,24-08.3200N,139-07.1500E,171,29.429
2615,2008/9/13,4:45:00,24-08.0800N,139-07.1900E,170,29.42
2616,2008/9/13,4:46:00,24-07.8500N,139-07.2300E,171,29.411
2617,2008/9/13,4:47:00,24-07.6100N,139-07.2700E,170,29.416
2618,2008/9/13,4:48:00,24-07.3700N,139-07.3100E,171,29.411
2619,2008/9/13,4:49:00,24-07.1400N,139-07.3500E,171,29.433
2620,2008/9/13,4:50:00,24-06.9000N,139-07.3900E,172,29.466
2621,2008/9/13,4:51:00,24-06.6600N,139-07.4300E,172,29.506
2622,2008/9/13,4:52:00,24-06.4100N,139-07.4700E,170,29.507
2623,2008/9/13,4:53:00,24-06.1700N,139-07.5100E,170,29.505
2624,2008/9/13,4:54:00,24-05.9400N,139-07.5600E,170,29.466
2625,2008/9/13,4:55:00,24-05.7000N,139-07.6000E,170,29.458
2626,2008/9/13,4:56:00,24-05.4700N,139-07.6400E,170,29.443
2627,2008/9/13,4:57:00,24-05.2300N,139-07.6800E,169,29.47
2628,2008/9/13,4:58:00,24-04.9900N,139-07.7300E,169,29.479
2629,2008/9/13,4:59:00,24-04.7600N,139-07.7700E,170,29.47
2630,2008/9/13,5:00:00,24-04.5300N,139-07.8100E,171,29.54
2631,2008/9/13,5:01:00,24-04.2900N,139-07.8600E,170,29.659
2632,2008/9/13,5:02:00,24-04.0500N,139-07.9000E,169,29.587
2633,2008/9/13,5:03:00,24-03.8200N,139-07.9400E,169,29.544
2634,2008/9/13,5:04:00,24-03.5900N,139-07.9900E,169,29.511
2635,2008/9/13,5:05:00,24-03.3500N,139-08.0300E,169,29.505
2636,2008/9/13,5:06:00,24-03.1100N,139-08.0800E,169,29.491
2637,2008/9/13,5:07:00,24-02.8800N,139-08.1200E,169,29.491
2638,2008/9/13,5:08:00,24-02.6500N,139-08.1700E,170,29.497
2639,2008/9/13,5:09:00,24-02.4100N,139-08.2100E,170,29.512
2640,2008/9/13,5:10:00,24-02.1800N,139-08.2500E,170,29.555
2641,2008/9/13,5:11:00,24-01.9400N,139-08.3000E,168,29.535
2642,2008/9/13,5:12:00,24-01.7100N,139-08.3500E,169,29.532
2643,2008/9/13,5:13:00,24-01.4500N,139-08.4000E,170,29.519
2644,2008/9/13,5:14:00,24-01.2200N,139-08.4500E,168,29.529
2645,2008/9/13,5:15:00,24-00.9800N,139-08.4900E,169,29.533
2646,2008/9/13,5:16:00,24-00.7500N,139-08.5400E,168,29.534
2647,2008/9/13,5:17:00,24-00.5100N,139-08.5900E,170,29.536
2648,2008/9/13,5:18:00,24-00.2800N,139-08.6400E,169,29.507
2649,2008/9/13,5:19:00,24-00.0400N,139-08.6800E,169,29.472
2650,2008/9/13,5:20:00,23-59.8000N,139-08.7300E,169,29.496
2651,2008/9/13,5:21:00,23-59.5600N,139-08.7700E,170,29.484
2652,2008/9/13,5:22:00,23-59.3300N,139-08.8200E,170,29.48
2653,2008/9/13,5:23:00,23-59.0900N,139-08.8600E,169,29.479
2654,2008/9/13,5:24:00,23-58.8600N,139-08.9100E,169,29.497
2655,2008/9/13,5:25:00,23-58.6200N,139-08.9500E,169,29.55
2656,2008/9/13,5:26:00,23-58.3800N,139-09.0000E,170,29.546
2657,2008/9/13,5:27:00,23-58.1400N,139-09.0400E,169,29.548
2658,2008/9/13,5:28:00,23-57.9100N,139-09.0900E,169,29.582
2659,2008/9/13,5:29:00,23-57.6700N,139-09.1300E,171,29.562
2660,2008/9/13,5:30:00,23-57.4400N,139-09.1800E,169,29.562
2661,2008/9/13,5:31:00,23-57.2000N,139-09.2300E,170,29.573
2662,2008/9/13,5:32:00,23-56.9600N,139-09.2700E,170,29.561
2663,2008/9/13,5:33:00,23-56.7200N,139-09.3100E,170,29.578
2664,2008/9/13,5:34:00,23-56.4700N,139-09.3600E,170,29.651
2665,2008/9/13,5:35:00,23-56.2400N,139-09.4000E,170,29.637
2666,2008/9/13,5:36:00,23-56.0000N,139-09.4500E,170,29.587
2667,2008/9/13,5:37:00,23-55.7600N,139-09.4900E,169,29.583
2668,2008/9/13,5:38:00,23-55.5300N,139-09.5400E,169,29.598
2669,2008/9/13,5:39:00,23-55.3000N,139-09.6000E,168,29.602
2670,2008/9/13,5:40:00,23-55.0600N,139-09.6500E,168,29.606
2671,2008/9/13,5:41:00,23-54.8300N,139-09.7100E,167,29.667
2672,2008/9/13,5:42:00,23-54.6000N,139-09.7600E,167,29.643
2673,2008/9/13,5:43:00,23-54.3600N,139-09.8200E,167,29.673
2674,2008/9/13,5:44:00,23-54.1300N,139-09.8700E,167,29.665
2675,2008/9/13,5:45:00,23-53.9000N,139-09.9200E,168,29.668
2676,2008/9/13,5:46:00,23-53.6700N,139-09.9800E,167,29.672
2677,2008/9/13,5:47:00,23-53.4300N,139-10.0400E,167,29.663
2678,2008/9/13,5:48:00,23-53.2000N,139-10.0900E,168,29.67
2679,2008/9/13,5:49:00,23-52.9700N,139-10.1500E,166,29.684
2680,2008/9/13,5:50:00,23-52.7300N,139-10.2100E,168,29.674
2681,2008/9/13,5:51:00,23-52.5000N,139-10.2600E,167,29.664
2682,2008/9/13,5:52:00,23-52.2700N,139-10.3200E,168,29.686
2683,2008/9/13,5:53:00,23-52.0300N,139-10.3700E,169,29.659
2684,2008/9/13,5:54:00,23-51.8100N,139-10.4300E,167,29.65
2685,2008/9/13,5:55:00,23-51.5700N,139-10.4900E,166,29.666
2686,2008/9/13,5:56:00,23-51.3200N,139-10.5500E,167,29.694
2687,2008/9/13,5:57:00,23-51.0900N,139-10.6100E,166,29.67
2688,2008/9/13,5:58:00,23-50.8500N,139-10.6600E,167,29.651
2689,2008/9/13,5:59:00,23-50.6200N,139-10.7200E,167,29.668
2690,2008/9/13,6:00:00,23-50.3800N,139-10.7800E,166,29.647
2691,2008/9/13,6:01:00,23-50.1500N,139-10.8400E,167,29.629
2692,2008/9/13,6:02:00,23-49.9200N,139-10.9000E,167,29.628
2693,2008/9/13,6:03:00,23-49.6800N,139-10.9600E,166,29.619
2694,2008/9/13,6:04:00,23-49.4500N,139-11.0200E,167,29.606
2695,2008/9/13,6:05:00,23-49.2200N,139-11.0800E,166,29.63
2696,2008/9/13,6:06:00,23-48.9800N,139-11.1400E,166,29.629
2697,2008/9/13,6:07:00,23-48.7400N,139-11.2100E,165,29.622
2698,2008/9/13,6:08:00,23-48.5100N,139-11.2700E,166,29.622
2699,2008/9/13,6:09:00,23-48.2700N,139-11.3300E,166,29.62
2700,2008/9/13,6:10:00,23-48.0300N,139-11.3900E,166,29.628
2701,2008/9/13,6:11:00,23-47.8000N,139-11.4500E,166,29.623
2702,2008/9/13,6:12:00,23-47.5500N,139-11.5100E,167,29.618
2703,2008/9/13,6:13:00,23-47.3100N,139-11.5700E,167,29.63
2704,2008/9/13,6:14:00,23-47.0800N,139-11.6300E,166,29.617
2705,2008/9/13,6:15:00,23-46.8400N,139-11.7000E,166,29.603
2706,2008/9/13,6:16:00,23-46.6000N,139-11.7500E,167,29.625
2707,2008/9/13,6:17:00,23-46.3400N,139-11.8200E,167,29.637
2708,2008/9/13,6:18:00,23-46.1000N,139-11.8800E,166,29.71
2709,2008/9/13,6:19:00,23-45.8700N,139-11.9400E,166,29.694
2710,2008/9/13,6:20:00,23-45.6300N,139-11.9900E,167,29.706
2711,2008/9/13,6:21:00,23-45.4000N,139-12.0500E,168,29.709
2712,2008/9/13,6:22:00,23-45.1600N,139-12.1100E,167,29.696
2713,2008/9/13,6:23:00,23-44.9200N,139-12.1700E,166,29.695
2714,2008/9/13,6:24:00,23-44.6900N,139-12.2300E,166,29.639
2715,2008/9/13,6:25:00,23-44.4500N,139-12.2800E,168,29.601
2716,2008/9/13,6:26:00,23-44.2200N,139-12.3400E,167,29.59
2717,2008/9/13,6:27:00,23-43.9900N,139-12.3900E,168,29.572
2718,2008/9/13,6:28:00,23-43.7500N,139-12.4500E,165,29.576
2719,2008/9/13,6:29:00,23-43.5200N,139-12.5100E,165,29.587
2720,2008/9/13,6:30:00,23-43.2800N,139-12.5700E,168,29.561
2721,2008/9/13,6:31:00,23-43.0500N,139-12.6300E,168,29.565
2722,2008/9/13,6:32:00,23-42.8100N,139-12.6800E,167,29.581
2723,2008/9/13,6:33:00,23-42.5700N,139-12.7400E,167,29.519
2724,2008/9/13,6:34:00,23-42.3400N,139-12.7900E,168,29.501
2725,2008/9/13,6:35:00,23-42.1000N,139-12.8500E,167,29.513
2726,2008/9/13,6:36:00,23-41.8600N,139-12.9100E,168,29.508
2727,2008/9/13,6:37:00,23-41.6200N,139-12.9700E,167,29.496
2728,2008/9/13,6:38:00,23-41.3800N,139-13.0200E,167,29.532
2729,2008/9/13,6:39:00,23-41.1200N,139-13.0900E,167,29.537
2730,2008/9/13,6:40:00,23-40.8800N,139-13.1400E,168,29.521
2731,2008/9/13,6:41:00,23-40.6400N,139-13.2000E,167,29.517
2732,2008/9/13,6:42:00,23-40.4000N,139-13.2600E,165,29.538
2733,2008/9/13,6:43:00,23-40.1600N,139-13.3200E,167,29.54
2734,2008/9/13,6:44:00,23-39.9200N,139-13.3700E,167,29.544
2735,2008/9/13,6:45:00,23-39.6700N,139-13.4300E,167,29.541
2736,2008/9/13,6:46:00,23-39.4300N,139-13.4900E,166,29.601
2737,2008/9/13,6:47:00,23-39.1900N,139-13.5600E,164,29.614
2738,2008/9/13,6:48:00,23-38.9500N,139-13.6300E,166,29.588
2739,2008/9/13,6:49:00,23-38.7100N,139-13.7000E,165,29.583
2740,2008/9/13,6:50:00,23-38.4700N,139-13.7600E,165,29.61
2741,2008/9/13,6:51:00,23-38.2300N,139-13.8300E,165,29.629
2742,2008/9/13,6:52:00,23-37.9900N,139-13.9000E,165,29.642
2743,2008/9/13,6:53:00,23-37.7500N,139-13.9600E,166,29.82
2744,2008/9/13,6:54:00,23-37.5100N,139-14.0300E,165,29.776
2745,2008/9/13,6:55:00,23-37.2800N,139-14.1000E,165,29.706
2746,2008/9/13,6:56:00,23-37.0400N,139-14.1700E,165,29.672
2747,2008/9/13,6:57:00,23-36.8000N,139-14.2300E,165,29.832
2748,2008/9/13,6:58:00,23-36.5700N,139-14.3000E,165,29.762
2749,2008/9/13,6:59:00,23-36.3300N,139-14.3700E,165,29.673
2750,2008/9/13,7:00:00,23-36.0900N,139-14.4400E,165,29.681
2751,2008/9/13,7:01:00,23-35.8500N,139-14.5100E,166,29.685
2752,2008/9/13,7:02:00,23-35.6200N,139-14.5700E,165,29.668
2753,2008/9/13,7:03:00,23-35.3800N,139-14.6400E,165,29.65
2754,2008/9/13,7:04:00,23-35.1400N,139-14.7000E,166,29.619
2755,2008/9/13,7:05:00,23-34.9000N,139-14.7600E,167,29.693
2756,2008/9/13,7:06:00,23-34.6700N,139-14.8200E,165,29.68
2757,2008/9/13,7:07:00,23-34.4300N,139-14.8900E,166,29.642
2758,2008/9/13,7:08:00,23-34.2000N,139-14.9500E,165,29.659
2759,2008/9/13,7:09:00,23-33.9600N,139-15.0200E,165,29.675
2760,2008/9/13,7:10:00,23-33.7200N,139-15.0800E,165,29.719
2761,2008/9/13,7:11:00,23-33.5000N,139-15.1400E,164,29.716
2762,2008/9/13,7:12:00,23-33.2600N,139-15.2100E,166,29.713
2763,2008/9/13,7:13:00,23-33.0200N,139-15.2700E,166,29.733
2764,2008/9/13,7:14:00,23-32.7900N,139-15.3400E,165,29.748
2765,2008/9/13,7:15:00,23-32.5500N,139-15.4000E,166,29.761
2766,2008/9/13,7:16:00,23-32.3100N,139-15.4700E,165,29.827
2767,2008/9/13,7:17:00,23-32.0800N,139-15.5300E,165,29.838
2768,2008/9/13,7:18:00,23-31.8400N,139-15.5900E,165,29.811
2769,2008/9/13,7:19:00,23-31.6000N,139-15.6600E,166,29.773
2770,2008/9/13,7:20:00,23-31.3700N,139-15.7300E,166,29.778
2771,2008/9/13,7:21:00,23-31.1300N,139-15.7900E,165,29.768
2772,2008/9/13,7:22:00,23-30.9000N,139-15.8600E,164,29.764
2773,2008/9/13,7:23:00,23-30.6500N,139-15.9300E,165,29.761
2774,2008/9/13,7:24:00,23-30.4100N,139-15.9900E,166,29.769
2775,2008/9/13,7:25:00,23-30.1800N,139-16.0500E,166,29.791